Location: Christchurch
(43.5330°S, 172.6330°E)
Time: 04:30:15
(UTC+13:00)

Cosmos 2322 Rocket - Pass Details

Date: 24 January 2019
Orbit: 834 x 849 km, 71.0° (Epoch: 22 February)

Event Time Altitude Azimuth Distance (km) Brightness Sun altitude
Rises 22:57:28 0° 319° (NW) 3,393 5.3 -16.8°
Reaches altitude 10° 22:59:59 10° 313° (NW) 2,468 4.6 -17.1°
Maximum altitude 23:05:28 48° 239° (WSW) 1,113 3.2 -17.8°
Drops below altitude 10° 23:11:01 10° 165° (SSE) 2,504 5.2 -18.4°
Sets 23:13:36 0° 159° (SSE) 3,448 5.8 -18.7°
